This is the latest recevied weather packets stored in our database for station/object K6MBY. If no packets are shown the sender has not sent any weather packets the latest 10 day(s).
| Time | Temp. | Humidity | Pressure | Rain* | Wind** | Luminosity | Snow |
|---|---|---|---|---|---|---|---|
| 1777683686 | 12.22° C | 89% | 1019 hPa | 0 mm | - | 228 W/m² | - |
| 1777683384 | 11.67° C | 89% | 1019.3 hPa | 0 mm | - | 260 W/m² | - |
| 1777683082 | 11.67° C | 89% | 1019.2 hPa | 0 mm | - | 271 W/m² | - |
| 1777682777 | 11.67° C | 90% | 1018.9 hPa | 0 mm | - | 301 W/m² | - |
| 1777682474 | 11.67° C | 90% | 1019.1 hPa | 0 mm | - | 327 W/m² | - |
| 1777682173 | 11.67° C | 91% | 1019.2 hPa | 0 mm | - | 314 W/m² | - |
| 1777681869 | 11.11° C | 93% | 1019.1 hPa | 0 mm | - | 324 W/m² | - |
| 1777681565 | 10.56° C | 93% | 1019.3 hPa | 0 mm | - | 333 W/m² | - |
| 1777681263 | 10.56° C | 94% | 1019.5 hPa | 0 mm | - | 256 W/m² | - |
| 1777680960 | 10.56° C | 94% | 1019.4 hPa | 0 mm | - | 266 W/m² | - |
| 1777680657 | 10.56° C | 93% | 1019.6 hPa | 0 mm | - | 236 W/m² | - |
| 1777680355 | 10.56° C | 93% | 1019.3 hPa | 0 mm | - | 250 W/m² | - |
| 1777680052 | 11.11° C | 92% | 1019.3 hPa | 0 mm | - | 218 W/m² | - |
| 1777679748 | 11.11° C | 92% | 1019.5 hPa | 0 mm | - | 433 W/m² | - |
| 1777679444 | 11.67° C | 90% | 1019.3 hPa | 0 mm | - | 387 W/m² | - |
| 1777679140 | 11.67° C | 90% | 1019.5 hPa | 0 mm | - | 357 W/m² | - |
| 1777678838 | 11.67° C | 90% | 1019.4 hPa | 0 mm | - | 340 W/m² | - |
| 1777678535 | 11.67° C | 90% | 1019.4 hPa | 0 mm | - | 515 W/m² | - |
| 1777678232 | 11.67° C | 90% | 1019.4 hPa | 0 mm | - | 538 W/m² | - |
| 1777677928 | 11.67° C | 91% | 1019.4 hPa | 0 mm | - | 584 W/m² | - |
| 1777677626 | 10.56° C | 93% | 1019.3 hPa | 0 mm | - | 586 W/m² | - |
| 1777677324 | 10.56° C | 93% | 1019.6 hPa | 0 mm | - | 508 W/m² | - |
| 1777677022 | 10.56° C | 93% | 1019.6 hPa | 0 mm | - | 550 W/m² | - |
| 1777676721 | 10.56° C | 93% | 1019.7 hPa | 0 mm | - | 474 W/m² | - |
| 1777676417 | 10.56° C | 93% | 1019.8 hPa | 0 mm | - | 552 W/m² | - |
* Rain latest hour (hover to see other rain measurements)
** Current wind speed in m/s (hover to see current wind gust speed)